Weather History for Estherville, IA

Change the Weather History Date:

Wednesday, August 14, 2013

  Actual Average Record
Temperature  
Mean Temperature 60 °F 70 °F  
Max Temperature 73 °F 80 °F 94 °F (1965)
Min Temperature 47 °F 59 °F 43 °F (1992)
Degree Days  
Heating Degree Days 5 1  
Month to date heating degree days 12 3  
Since 1 June heating degree days 88 53  
Since 1 July heating degree days 34 12  
Cooling Degree Days 0 5  
Month to date cooling degree days 21 79  
Year to date cooling degree days 435 471  
Since 1 June cooling degree days 402 435  
Growing Degree Days 10 (Base 50)    
Moisture  
Dew Point 52 °F    
Average Humidity 75    
Maximum Humidity 100    
Minimum Humidity 49    
Precipitation  
Precipitation 0.00 in 0.13 in 1.86 in (1989)
Month to date precipitation 1.25 1.99  
Sea Level Pressure  
Sea Level Pressure 30.18 in    
Wind  
Wind Speed 4 mph (South)    
Max Wind Speed 9 mph    
Max Gust Speed 13 mph    
Visibility 10 miles    
Events      
T = Trace of Precipitation, MM = Missing Value Source: NWS Daily Summary

Daily Weather History Graph

Daily Weather History Graph

Search for Another Location

Airport:

Trip Planner

Search our weather history database for the weather conditions in past years. The results will help you decide how hot, cold, wet, or windy it might be!

Date:

Astronomy

Aug. 14, 2013 Rise Set
Actual Time 6:23 AM CDT 8:23 PM CDT
Civil Twilight 5:52 AM CDT 8:54 PM CDT
Nautical Twilight 5:14 AM CDT 9:31 PM CDT
Astronomical Twilight 4:32 AM CDT 10:13 PM CDT
Moon 2:38 PM CDT (8/14) No Moon Set
Length of Visible Light 15h 01m
Length of Day
13h 59m
First Quarter, 53% of the Moon is Illuminated
Aug 14
First Quarter
Aug 20
Full
Aug 28
Last Quarter
Sep 5
New
Sep 12
First Quarter

Hourly Weather History & Observations

Time (CDT) Temp. Dew Point Humidity Pressure Visibility Wind Dir Wind Speed Gust Speed Precip Events Conditions
12:52 AM 52.0 °F 51.1 °F 97% 30.22 in 10.0 mi Calm Calm - N/A   Clear
1:52 AM 48.9 °F 48.0 °F 97% 30.20 in 10.0 mi Calm Calm - N/A   Clear
2:52 AM 48.9 °F 48.0 °F 97% 30.21 in 10.0 mi WSW 3.5 mph - N/A   Clear
3:52 AM 48.9 °F 48.0 °F 97% 30.21 in 10.0 mi Calm Calm - N/A   Clear
4:52 AM 48.0 °F 46.0 °F 93% 30.22 in 9.0 mi SW 3.5 mph - N/A   Clear
5:52 AM 48.0 °F 48.0 °F 100% 30.21 in 9.0 mi Calm Calm - N/A   Clear
6:52 AM 48.9 °F 48.0 °F 97% 30.22 in 10.0 mi SW 3.5 mph - N/A   Clear
7:52 AM 55.9 °F 53.1 °F 90% 30.22 in 10.0 mi Calm Calm - N/A   Clear
8:52 AM 62.1 °F 55.9 °F 80% 30.22 in 10.0 mi SSW 3.5 mph - N/A   Clear
9:52 AM 66.9 °F 55.9 °F 68% 30.23 in 10.0 mi South 4.6 mph - N/A   Clear
10:52 AM 69.1 °F 51.1 °F 53% 30.23 in 10.0 mi South 8.1 mph - 0.01 in   Clear
11:52 AM 70.0 °F 51.1 °F 51% 30.22 in 10.0 mi South 9.2 mph - N/A   Clear
12:52 PM 70.0 °F 51.1 °F 51% 30.20 in 10.0 mi Calm Calm - N/A   Clear
1:52 PM 72.0 °F 51.1 °F 48% 30.18 in 10.0 mi South 6.9 mph - N/A   Partly Cloudy
2:52 PM 72.0 °F 52.0 °F 49% 30.18 in 10.0 mi South 5.8 mph - N/A   Clear
3:52 PM 72.0 °F 52.0 °F 49% 30.16 in 10.0 mi South 5.8 mph - N/A   Clear
4:52 PM 72.0 °F 55.0 °F 55% 30.15 in 10.0 mi SSE 6.9 mph - N/A   Unknown
5:52 PM 71.1 °F 55.0 °F 57% 30.14 in 10.0 mi Calm Calm - N/A   Clear
6:52 PM 69.1 °F 55.9 °F 63% 30.13 in 10.0 mi SSE 4.6 mph - N/A   Clear
7:52 PM 66.9 °F 57.9 °F 73% 30.13 in 10.0 mi SE 4.6 mph - N/A   Mostly Cloudy
8:52 PM 63.0 °F 57.9 °F 84% 30.13 in 10.0 mi SSE 5.8 mph - N/A   Mostly Cloudy
9:52 PM 59.0 °F 57.0 °F 93% 30.14 in 10.0 mi SSE 4.6 mph - N/A   Mostly Cloudy
10:52 PM 57.0 °F 54.0 °F 89% 30.14 in 10.0 mi SSE 3.5 mph - N/A   Clear
11:52 PM 55.0 °F 53.1 °F 93% 30.14 in 10.0 mi Calm Calm - N/A   Clear